Location: LDNL
(36.4545°S, 141.6685°E)
Time: 00:50:05
(UTC+10:00)

Vanguard 2 - All Passes

Search period start: 11 August 2022 00:00
Search period end: 21 August 2022 00:00
Orbit: 552 x 2934 km, 32.9° (Epoch: 09 August)

Date Brightness Start Highest point End Pass type
(mag) Time Alt. Az. Time Alt. Az. Time Alt. Az.
11 Aug - 14:41:01 10° N 14:53:30 24° NE 15:04:24 10° E daylight
11 Aug - 16:48:31 10° NW 17:04:41 49° NNE 17:16:12 10° E daylight
11 Aug - 19:00:36 10° WNW 19:15:47 71° N 19:25:00 10° E visible
11 Aug - 21:14:06 10° W 21:25:50 67° NNW 21:32:41 10° ENE visible
11 Aug - 23:27:09 10° W 23:34:03 29° NW 23:38:46 10° NNE visible
12 Aug - 14:56:20 10° NNW 15:10:39 31° NE 15:22:51 10° E daylight
12 Aug - 17:05:20 10° NW 17:22:01 57° NNE 17:33:38 10° E daylight
12 Aug - 19:18:05 10° WNW 19:33:10 74° N 19:42:14 10° E visible
12 Aug - 21:31:41 10° W 21:43:03 60° NNW 21:49:44 10° ENE visible
12 Aug - 23:45:10 10° W 23:50:50 21° NW 23:55:00 10° N visible
13 Aug - 13:09:30 10° NNE 13:16:59 14° NE 13:24:19 10° ENE daylight
13 Aug - 15:12:13 10° NNW 15:27:49 39° NNE 15:40:50 10° E daylight
13 Aug - 17:22:24 10° WNW 17:39:24 64° NNE 17:50:59 10° E daylight
13 Aug - 19:35:38 10° W 19:50:33 75° N 19:59:28 10° E visible
13 Aug - 21:49:17 10° W 22:00:10 51° NNW 22:06:41 10° NE visible
14 Aug - 00:03:48 10° WNW 00:07:30 14° NW 00:10:31 10° NNW night (unlit)
14 Aug - 13:22:53 10° N 13:33:59 20° NE 13:44:45 10° E daylight
14 Aug - 15:28:31 10° NW 15:45:02 47° NNE 15:58:32 10° E daylight
14 Aug - 17:39:39 10° WNW 17:56:47 70° NNE 18:08:18 10° E daylight
14 Aug - 19:53:14 10° W 20:07:55 73° N 20:16:39 10° ENE visible
14 Aug - 22:06:57 10° W 22:17:09 42° NNW 22:23:27 10° NE visible
15 Aug - 13:37:45 10° N 13:50:57 27° NE 14:03:44 10° E daylight
15 Aug - 15:45:10 10° NW 16:02:18 55° NNE 16:16:05 10° E daylight
15 Aug - 17:57:03 10° WNW 18:14:13 75° N 18:25:36 10° E visible
15 Aug - 20:10:51 10° W 20:25:13 69° NNW 20:33:47 10° ENE visible
15 Aug - 22:24:45 10° W 22:34:00 33° NW 22:40:01 10° NNE visible
16 Aug - 13:53:20 10° NNW 14:07:58 35° NE 14:22:02 10° E daylight
16 Aug - 16:02:03 10° NW 16:19:37 62° NNE 16:33:31 10° E daylight
16 Aug - 18:14:33 10° W 18:31:40 77° N 18:42:52 10° E visible
16 Aug - 20:28:28 10° W 20:42:26 62° NNW 20:50:50 10° ENE visible
16 Aug - 22:42:48 10° W 22:50:43 24° NW 22:56:15 10° N visible
17 Aug - 12:06:19 10° NNE 12:14:37 16° NE 12:23:17 10° ENE daylight
17 Aug - 14:09:24 10° NNW 14:25:01 42° NNE 14:39:57 10° E daylight
17 Aug - 16:19:09 10° WNW 16:37:00 69° NNE 16:50:54 10° E daylight
17 Aug - 18:32:08 10° W 18:49:06 77° N 19:00:07 10° E visible
17 Aug - 20:46:06 10° W 20:59:33 54° NNW 21:07:44 10° NE visible
17 Aug - 23:01:21 10° W 23:07:20 17° NW 23:11:55 10° N visible
18 Aug - 12:20:21 10° N 12:31:25 22° NE 12:43:15 10° E daylight
18 Aug - 14:25:50 10° NW 14:42:10 50° NNE 14:57:39 10° E daylight
18 Aug - 16:36:26 10° WNW 16:54:26 74° N 17:08:16 10° E daylight
18 Aug - 18:49:43 10° W 19:06:31 74° N 19:17:20 10° ENE visible
18 Aug - 21:03:48 10° W 21:16:32 45° NNW 21:24:30 10° NE visible
18 Aug - 23:21:28 10° WNW 23:23:51 11° NW 23:25:58 10° NW visible
19 Aug - 12:35:31 10° NNW 12:48:13 29° NE 13:02:02 10° E daylight
19 Aug - 14:42:33 10° NW 14:59:22 58° NNE 15:15:11 10° E daylight
19 Aug - 16:53:50 10° WNW 17:11:55 77° N 17:25:37 10° E daylight
19 Aug - 19:07:20 10° W 19:23:52 70° NNW 19:34:28 10° ENE visible
19 Aug - 21:21:39 10° W 21:33:22 36° NW 21:41:01 10° NNE visible
20 Aug - 10:55:03 10° NE 10:55:39 10° NE 10:56:15 10° NE daylight
20 Aug - 12:51:18 10° NNW 13:05:05 37° NE 13:20:16 10° E daylight
20 Aug - 14:59:29 10° WNW 15:16:41 65° NNE 15:32:39 10° E daylight
20 Aug - 17:11:20 10° W 17:29:25 78° N 17:42:55 10° E daylight
20 Aug - 19:24:57 10° W 19:41:06 63° NNW 19:51:31 10° ENE visible
20 Aug - 21:39:43 10° W 21:50:04 28° NW 21:57:12 10° NNE visible
